Time[GMT],dominant_wave_period[s](0m),mean_wave_direction[degrees](0m),max_wave_height[m](0m),significant_wave_height[m](0m),mean_wave_direction_spread[degrees](0m)
2017-05-09 12:00,,,,,
2017-05-09 13:00,,,,,
2017-05-09 14:00,,,,,
2017-05-09 15:00,,,,,
2017-05-09 16:00,8.0,43.50,2.14,,34.00
2017-05-09 17:00,7.1,44.50,1.93,,34.00
2017-05-09 18:00,6.9,34.50,1.88,,35.00
2017-05-09 19:00,8.0,43.50,1.84,,36.00
2017-05-09 20:00,7.4,44.50,1.85,,37.00
2017-05-09 21:00,7.4,43.50,2.22,,34.00
2017-05-09 22:00,7.7,45.50,2.02,,37.00
2017-05-09 23:00,7.4,49.50,2.37,,30.00
2017-05-10 00:00,7.4,51.50,1.78,,37.00
2017-05-10 01:00,6.9,55.50,1.76,,36.00
2017-05-10 02:00,5.9,52.50,1.90,,34.00
2017-05-10 03:00,8.0,52.50,2.55,,32.00
2017-05-10 04:00,8.0,55.50,2.18,,30.00
2017-05-10 05:00,5.1,52.50,1.66,,33.00
2017-05-10 06:00,7.7,50.50,1.70,,32.00
2017-05-10 07:00,8.0,53.50,1.67,,33.00
2017-05-10 08:00,8.0,54.50,1.42,,32.00
2017-05-10 09:00,8.0,49.50,2.10,,31.00
2017-05-10 10:00,8.0,53.50,1.44,,32.00
2017-05-10 11:00,7.7,52.50,1.52,,33.00
2017-05-10 12:00,7.7,50.50,1.73,,31.00
2017-05-10 13:00,11.8,52.50,1.73,,33.00
2017-05-10 14:00,7.7,54.50,1.77,,31.00
2017-05-10 15:00,7.4,56.50,1.94,,31.00
2017-05-10 16:00,8.0,54.50,1.71,,32.00
2017-05-10 17:00,7.1,55.50,1.90,,33.00
2017-05-10 18:00,12.5,53.50,2.00,,32.00
2017-05-10 19:00,7.4,55.50,1.52,,34.00
2017-05-10 20:00,7.1,56.50,1.74,,33.00
2017-05-10 21:00,6.9,52.50,1.58,,32.00
2017-05-10 22:00,11.1,50.50,1.72,,30.00
2017-05-10 23:00,8.0,49.50,1.83,,33.00
2017-05-11 00:00,7.7,48.50,1.59,,30.00
2017-05-11 01:00,11.8,43.50,1.43,,31.00
2017-05-11 02:00,10.5,45.50,1.36,,33.00
2017-05-11 03:00,12.5,42.50,1.45,,32.00
2017-05-11 04:00,12.5,44.50,1.51,,29.00
2017-05-11 05:00,11.8,45.50,1.44,,31.00
2017-05-11 06:00,11.8,42.50,1.82,,30.00
2017-05-11 07:00,11.8,45.50,1.86,,31.00
2017-05-11 08:00,11.8,47.50,1.93,,26.00
2017-05-11 09:00,11.8,44.50,1.52,,26.00
2017-05-11 10:00,11.8,46.50,1.57,,29.00
2017-05-11 11:00,11.8,44.50,1.54,,30.00
2017-05-11 12:00,11.1,42.50,1.82,,29.00
2017-05-11 13:00,11.1,40.50,1.55,,31.00
2017-05-11 14:00,11.8,40.50,1.63,,32.00
2017-05-11 15:00,12.5,39.50,1.88,,32.00
2017-05-11 16:00,11.8,37.50,1.96,,31.00
2017-05-11 17:00,12.5,37.50,1.68,,33.00
2017-05-11 18:00,13.3,34.50,1.55,,29.00
2017-05-11 19:00,13.3,38.50,1.33,,30.00
2017-05-11 20:00,11.8,40.50,1.64,,33.00
2017-05-11 21:00,13.3,38.50,1.53,,28.00
2017-05-11 22:00,12.5,39.50,1.68,,28.00
2017-05-11 23:00,12.5,38.50,1.84,,30.00
2017-05-12 00:00,11.8,38.50,1.77,,33.00
2017-05-12 01:00,12.5,34.50,1.79,,29.00
2017-05-12 02:00,13.3,35.50,1.91,,29.00
2017-05-12 03:00,12.5,31.50,1.83,,27.00
2017-05-12 04:00,12.5,31.50,1.72,,31.00
2017-05-12 05:00,12.5,30.50,1.70,,31.00
2017-05-12 06:00,12.5,32.50,1.55,,30.00
2017-05-12 07:00,12.5,32.50,1.79,,29.00
2017-05-12 08:00,12.5,36.50,1.57,,32.00
2017-05-12 09:00,11.8,34.50,1.51,,28.00
2017-05-12 10:00,12.5,32.50,1.75,,32.00
2017-05-12 11:00,12.5,33.50,1.63,,28.00
2017-05-12 12:00,12.5,33.50,1.63,,28.00
2017-05-12 13:00,12.5,35.50,1.72,,31.00
2017-05-12 14:00,12.5,34.50,1.42,,28.00
2017-05-12 15:00,12.5,37.50,1.41,,32.00
2017-05-12 16:00,12.5,34.50,1.56,,26.00
2017-05-12 17:00,11.8,31.50,1.48,,31.00
2017-05-12 18:00,12.5,31.50,1.63,,33.00
2017-05-12 19:00,12.5,31.50,1.29,,36.00
2017-05-12 20:00,12.5,31.50,1.45,,37.00
2017-05-12 21:00,12.5,33.50,1.39,,34.00
2017-05-12 22:00,12.5,31.50,1.57,,28.00
2017-05-12 23:00,12.5,36.50,1.43,,33.00
2017-05-13 00:00,12.5,33.50,1.65,,30.00
2017-05-13 01:00,10.5,36.50,1.26,,32.00
2017-05-13 02:00,12.5,36.50,1.30,,30.00
2017-05-13 03:00,11.8,36.50,1.41,,30.00
2017-05-13 04:00,11.8,35.50,1.47,,30.00
2017-05-13 05:00,11.8,35.50,1.18,,30.00
2017-05-13 06:00,11.8,32.50,1.41,,32.00
2017-05-13 07:00,11.8,33.50,1.29,,32.00
2017-05-13 08:00,11.8,33.50,1.38,,32.00
2017-05-13 09:00,11.8,31.50,1.49,,25.00
2017-05-13 10:00,11.8,36.50,1.14,,34.00
2017-05-13 11:00,11.8,36.50,1.40,,30.00
2017-05-13 12:00,11.8,40.50,1.07,,30.00
2017-05-13 13:00,10.5,42.50,1.21,,28.00
2017-05-13 14:00,11.8,41.50,1.04,,33.00
2017-05-13 15:00,11.8,42.50,1.29,,31.00
2017-05-13 16:00,11.8,47.50,1.18,,35.00
2017-05-13 17:00,11.1,50.50,1.28,,35.00
2017-05-13 18:00,10.5,55.50,1.29,,37.00
2017-05-13 19:00,11.8,51.50,1.13,,34.00
2017-05-13 20:00,10.5,51.50,1.74,,36.00
2017-05-13 21:00,11.1,52.50,1.33,,34.00
2017-05-13 22:00,4.1,56.50,1.39,,33.00
2017-05-13 23:00,4.0,56.50,1.22,,35.00
2017-05-14 00:00,4.2,55.50,1.36,,32.00
2017-05-14 01:00,11.8,49.50,1.42,,31.00
2017-05-14 02:00,6.9,50.50,1.28,,34.00
2017-05-14 03:00,4.3,49.50,1.15,,33.00
2017-05-14 04:00,11.1,46.50,1.05,,33.00
2017-05-14 05:00,8.7,46.50,1.34,,30.00
2017-05-14 06:00,10.0,49.50,1.37,,31.00
2017-05-14 07:00,4.7,49.50,1.15,,33.00
2017-05-14 08:00,11.1,44.50,1.37,,30.00
2017-05-14 09:00,4.4,48.50,1.13,,32.00
2017-05-14 10:00,4.8,48.50,1.28,,30.00
2017-05-14 11:00,7.7,54.50,1.16,,31.00
2017-05-14 12:00,4.7,58.50,1.48,,31.00
2017-05-14 13:00,4.5,58.50,1.35,,31.00
2017-05-14 14:00,4.8,58.50,1.63,,30.00
2017-05-14 15:00,5.0,58.50,1.97,,35.00
2017-05-14 16:00,5.0,57.50,1.62,,33.00
2017-05-14 17:00,4.9,59.50,1.75,,33.00
2017-05-14 18:00,7.7,53.50,1.68,,32.00
2017-05-14 19:00,11.1,53.50,1.60,,30.00
2017-05-14 20:00,5.0,52.50,1.67,,30.00
2017-05-14 21:00,11.1,53.50,1.30,,32.00
2017-05-14 22:00,10.5,48.50,1.79,,30.00
2017-05-14 23:00,10.0,45.50,1.41,,31.00
2017-05-15 00:00,10.0,37.50,1.31,,33.00
2017-05-15 01:00,9.5,34.50,1.38,,30.00
2017-05-15 02:00,10.0,40.50,1.31,,30.00
2017-05-15 03:00,10.0,43.50,1.43,,32.00
2017-05-15 04:00,9.5,35.50,1.38,,28.00
2017-05-15 05:00,9.5,38.50,1.53,,30.00
2017-05-15 06:00,9.1,37.50,1.35,,31.00
2017-05-15 07:00,9.1,45.50,1.36,,27.00
2017-05-15 08:00,9.1,37.50,1.91,,28.00
2017-05-15 09:00,8.7,39.50,1.36,,30.00
2017-05-15 10:00,8.7,45.50,1.41,,29.00
2017-05-15 11:00,9.1,46.50,1.53,,28.00
2017-05-15 12:00,8.3,46.50,1.53,,29.00
2017-05-15 13:00,8.3,47.50,1.69,,30.00
2017-05-15 14:00,5.6,51.50,1.86,,30.00
2017-05-15 15:00,5.3,57.50,1.86,,32.00
2017-05-15 16:00,5.3,53.50,1.76,,29.00
2017-05-15 17:00,10.0,47.50,1.56,,29.00
2017-05-15 18:00,5.6,40.50,1.48,,26.00
2017-05-15 19:00,8.3,42.50,1.48,,27.00
2017-05-15 20:00,5.4,43.50,1.53,,29.00
2017-05-15 21:00,11.8,41.50,1.45,,29.00
2017-05-15 22:00,11.8,41.50,1.84,,30.00
2017-05-15 23:00,11.8,35.50,1.81,,28.00
2017-05-16 00:00,11.8,32.50,1.53,,26.00
2017-05-16 01:00,11.8,33.50,1.58,,28.00
2017-05-16 02:00,11.1,25.50,1.86,,25.00
2017-05-16 03:00,11.8,25.50,1.64,,24.00
2017-05-16 04:00,11.1,30.50,1.60,,29.00
2017-05-16 05:00,11.8,27.50,1.32,,28.00
2017-05-16 06:00,11.1,30.50,1.70,,29.00
2017-05-16 07:00,11.1,27.50,1.57,,30.00
2017-05-16 08:00,11.1,28.50,1.52,,30.00
2017-05-16 09:00,10.5,36.50,1.82,,28.00
2017-05-16 10:00,11.1,29.50,1.65,,26.00
2017-05-16 11:00,11.8,28.50,1.94,,25.00
2017-05-16 12:00,11.8,32.50,1.96,,26.00
2017-05-16 13:00,15.4,35.50,1.94,,28.00
2017-05-16 14:00,10.5,44.50,1.79,,28.00
2017-05-16 15:00,10.5,43.50,1.55,,28.00
2017-05-16 16:00,10.5,47.50,1.70,,28.00
2017-05-16 17:00,10.5,41.50,1.75,,28.00
2017-05-16 18:00,15.4,44.50,1.71,,28.00
2017-05-16 19:00,15.4,39.50,1.42,,28.00
2017-05-16 20:00,15.4,44.50,1.64,,28.00
2017-05-16 21:00,11.8,39.50,1.49,,27.00
2017-05-16 22:00,15.4,36.50,1.53,,27.00
2017-05-16 23:00,15.4,37.50,1.34,,29.00
2017-05-17 00:00,15.4,34.50,1.48,,27.00
2017-05-17 01:00,15.4,32.50,1.51,,27.00
2017-05-17 02:00,15.4,29.50,1.44,,27.00
2017-05-17 03:00,12.5,33.50,1.38,,28.00
2017-05-17 04:00,15.4,32.50,1.40,,27.00
2017-05-17 05:00,14.3,33.50,1.82,,25.00
2017-05-17 06:00,14.3,35.50,1.86,,27.00
2017-05-17 07:00,14.3,42.50,1.34,,29.00
2017-05-17 08:00,14.3,41.50,1.54,,28.00
2017-05-17 09:00,14.3,45.50,1.73,,29.00
2017-05-17 10:00,14.3,48.50,1.92,,25.00
2017-05-17 11:00,14.3,47.50,1.73,,28.00
2017-05-17 12:00,14.3,45.50,1.65,,33.00
2017-05-17 13:00,13.3,47.50,2.01,,30.00
2017-05-17 14:00,5.0,54.50,1.78,,30.00
2017-05-17 15:00,12.5,51.50,2.00,,30.00
2017-05-17 16:00,5.6,51.50,1.86,,31.00
2017-05-17 17:00,5.3,54.50,1.97,,32.00
2017-05-17 18:00,5.4,53.50,1.69,,30.00
2017-05-17 19:00,5.6,56.50,1.90,,30.00
2017-05-17 20:00,5.4,54.50,1.74,,31.00
2017-05-17 21:00,10.0,50.50,1.60,,32.00
2017-05-17 22:00,13.3,50.50,1.69,,32.00
2017-05-17 23:00,,,,,
2017-05-18 00:00,,,,,
2017-05-18 01:00,,,,,
2017-05-18 02:00,,,,,
2017-05-18 03:00,,,,,
2017-05-18 04:00,,,,,
2017-05-18 05:00,,,,,
2017-05-18 06:00,,,,,
2017-05-18 07:00,,,,,
2017-05-18 08:00,,,,,
2017-05-18 09:00,,,,,
2017-05-18 10:00,,,,,
2017-05-18 11:00,,,,,
2017-05-18 12:00,,,,,
2017-05-18 13:00,,,,,
2017-05-18 14:00,,,,,
2017-05-18 15:00,,,,,
2017-05-18 16:00,5.7,47.50,2.08,1.26,31.00
2017-05-18 17:00,5.9,45.50,2.33,1.28,29.00
2017-05-18 18:00,5.3,44.50,2.04,1.22,30.00
2017-05-18 19:00,5.9,45.50,2.09,1.30,30.00
2017-05-18 20:00,5.3,46.50,2.14,1.24,29.00
2017-05-18 21:00,8.3,42.50,2.04,1.20,32.00
2017-05-18 22:00,5.7,40.50,1.79,1.14,31.00
2017-05-18 23:00,10.5,41.50,2.01,1.11,31.00
2017-05-19 00:00,5.1,42.50,1.73,1.07,31.00
2017-05-19 01:00,10.5,39.50,1.55,1.00,33.00
2017-05-19 02:00,10.5,33.50,1.55,1.10,32.00
2017-05-19 03:00,10.5,37.50,1.69,0.98,35.00
2017-05-19 04:00,10.5,39.50,1.92,1.11,33.00
2017-05-19 05:00,10.0,39.50,1.74,1.14,32.00
2017-05-19 06:00,4.8,41.50,1.93,1.22,31.00
2017-05-19 07:00,5.7,40.50,2.08,1.31,35.00
2017-05-19 08:00,9.5,44.50,2.06,1.17,33.00
2017-05-19 09:00,5.4,45.50,2.30,1.26,36.00
2017-05-19 10:00,5.4,49.50,2.25,1.37,34.00
2017-05-19 11:00,5.6,50.50,2.10,1.39,33.00
2017-05-19 12:00,9.5,49.50,2.47,1.32,31.00
2017-05-19 13:00,5.6,46.50,1.97,1.28,33.00
2017-05-19 14:00,8.7,45.50,2.41,1.31,29.00
2017-05-19 15:00,5.6,47.50,1.74,1.13,33.00
2017-05-19 16:00,9.1,38.50,1.81,1.13,33.00
2017-05-19 17:00,9.5,39.50,1.53,1.05,34.00
2017-05-19 18:00,5.9,43.50,1.55,1.03,37.00
2017-05-19 19:00,8.7,38.50,1.95,1.05,34.00
2017-05-19 20:00,9.1,37.50,1.96,1.04,35.00
2017-05-19 21:00,5.3,37.50,1.71,1.02,36.00
2017-05-19 22:00,8.7,30.50,1.38,0.98,34.00
2017-05-19 23:00,8.7,32.50,1.95,1.02,33.00
2017-05-20 00:00,8.0,33.50,1.61,0.91,36.00
2017-05-20 01:00,8.3,33.50,1.38,0.88,36.00
2017-05-20 02:00,8.3,34.50,1.43,0.92,37.00
2017-05-20 03:00,8.3,36.50,1.52,0.91,37.00
2017-05-20 04:00,8.7,32.50,1.39,0.87,35.00
2017-05-20 05:00,8.7,34.50,1.50,0.85,37.00
2017-05-20 06:00,9.1,35.50,1.51,0.93,36.00
2017-05-20 07:00,8.7,34.50,1.65,0.92,35.00
2017-05-20 08:00,7.7,34.50,1.56,0.93,37.00
2017-05-20 09:00,10.0,32.50,1.41,0.87,35.00
2017-05-20 10:00,9.1,32.50,1.49,0.96,35.00
2017-05-20 11:00,9.5,37.50,1.56,0.92,36.00
2017-05-20 12:00,8.7,42.50,1.35,0.94,38.00
2017-05-20 13:00,9.1,42.50,1.39,0.94,38.00
2017-05-20 14:00,9.5,40.50,1.52,0.94,37.00
2017-05-20 15:00,7.4,43.50,1.56,0.92,38.00
2017-05-20 16:00,8.0,39.50,1.72,0.91,39.00
2017-05-20 17:00,4.7,38.50,1.32,0.94,39.00
2017-05-20 18:00,8.0,35.50,1.63,0.94,39.00
2017-05-20 19:00,6.3,35.50,1.41,0.89,39.00
2017-05-20 20:00,6.3,31.50,1.53,0.96,38.00
2017-05-20 21:00,7.4,36.50,1.61,0.91,38.00
2017-05-20 22:00,5.1,34.50,1.72,0.97,39.00
2017-05-20 23:00,5.1,32.50,1.49,0.87,39.00
2017-05-21 00:00,7.1,33.50,1.83,1.02,40.00
2017-05-21 01:00,5.7,32.50,1.69,1.04,38.00
2017-05-21 02:00,5.4,35.50,1.66,1.03,39.00
2017-05-21 03:00,5.7,35.50,1.85,1.13,37.00
2017-05-21 04:00,5.6,36.50,1.69,1.04,38.00
2017-05-21 05:00,7.7,34.50,1.98,1.01,41.00
2017-05-21 06:00,6.1,35.50,1.78,1.05,35.00
2017-05-21 07:00,5.7,35.50,1.63,1.10,36.00
2017-05-21 08:00,6.9,40.50,1.59,1.05,37.00
2017-05-21 09:00,5.7,38.50,1.71,1.06,36.00
2017-05-21 10:00,5.7,40.50,1.71,1.08,37.00
2017-05-21 11:00,6.5,40.50,1.40,1.06,38.00
2017-05-21 12:00,5.1,42.50,1.65,1.04,38.00
2017-05-21 13:00,6.5,39.50,1.62,1.03,37.00
2017-05-21 14:00,6.1,40.50,1.64,1.01,38.00
2017-05-21 15:00,5.9,37.50,1.55,1.01,39.00
2017-05-21 16:00,5.7,39.50,1.59,1.04,38.00
2017-05-21 17:00,6.3,35.50,1.90,1.00,39.00
2017-05-21 18:00,5.9,35.50,2.14,1.03,38.00
2017-05-21 19:00,5.9,35.50,1.89,1.07,36.00
2017-05-21 20:00,6.3,39.50,1.85,1.02,38.00
2017-05-21 21:00,6.3,32.50,1.64,1.07,38.00
2017-05-21 22:00,6.5,40.50,1.67,1.04,36.00
2017-05-21 23:00,4.3,42.50,1.85,1.06,37.00
2017-05-22 00:00,5.7,43.50,1.59,1.12,36.00
2017-05-22 01:00,6.1,39.50,1.72,1.14,35.00
2017-05-22 02:00,6.3,42.50,1.77,1.08,38.00
2017-05-22 03:00,7.1,47.50,1.51,1.09,36.00
2017-05-22 04:00,5.9,44.50,1.82,1.07,37.00
2017-05-22 05:00,6.1,45.50,1.58,1.04,35.00
2017-05-22 06:00,6.7,48.50,1.51,0.98,38.00
2017-05-22 07:00,6.9,41.50,1.37,0.92,38.00
2017-05-22 08:00,4.9,47.50,1.39,0.96,33.00
2017-05-22 09:00,6.3,47.50,1.62,0.92,36.00
2017-05-22 10:00,5.1,41.50,1.54,0.91,37.00
2017-05-22 11:00,5.9,43.50,1.46,0.91,35.00
2017-05-22 12:00,4.9,39.50,1.39,0.87,40.00
2017-05-22 13:00,6.9,43.50,1.37,0.88,34.00
2017-05-22 14:00,5.0,43.50,1.34,0.82,37.00
2017-05-22 15:00,4.4,45.50,1.31,0.83,37.00
2017-05-22 16:00,5.3,46.50,1.31,0.88,35.00
2017-05-22 17:00,4.7,48.50,1.60,0.91,38.00
2017-05-22 18:00,7.4,45.50,1.33,0.85,38.00
2017-05-22 19:00,5.1,43.50,1.27,0.85,38.00
2017-05-22 20:00,6.7,44.50,1.42,0.81,38.00
2017-05-22 21:00,6.9,48.50,1.31,0.85,37.00
2017-05-22 22:00,6.3,41.50,1.41,0.83,38.00
2017-05-22 23:00,6.7,42.50,1.24,0.80,36.00
2017-05-23 00:00,7.7,42.50,1.40,0.85,38.00
2017-05-23 01:00,4.7,41.50,1.52,0.78,38.00
2017-05-23 02:00,5.0,38.50,1.33,0.88,37.00
2017-05-23 03:00,6.9,44.50,1.39,0.87,36.00
2017-05-23 04:00,6.3,55.50,1.40,0.85,37.00
2017-05-23 05:00,4.4,55.50,1.44,0.88,36.00
2017-05-23 06:00,4.4,54.50,1.43,0.91,37.00
2017-05-23 07:00,5.0,48.50,1.43,0.83,36.00
2017-05-23 08:00,4.7,49.50,1.39,0.82,34.00
2017-05-23 09:00,4.7,52.50,1.33,0.84,34.00
2017-05-23 10:00,5.0,51.50,1.19,0.85,34.00
2017-05-23 11:00,4.7,52.50,1.60,0.83,37.00
2017-05-23 12:00,4.7,52.50,1.21,0.82,34.00
2017-05-23 13:00,5.1,49.50,1.24,0.80,38.00
2017-05-23 14:00,5.0,53.50,1.37,0.87,34.00
2017-05-23 15:00,4.5,53.50,1.68,0.88,36.00
2017-05-23 16:00,4.8,60.50,1.38,0.90,34.00
2017-05-23 17:00,4.7,54.50,1.54,0.97,35.00
2017-05-23 18:00,4.9,54.50,1.51,0.87,35.00
2017-05-23 19:00,4.8,55.50,1.32,0.89,35.00
2017-05-23 20:00,4.7,54.50,1.48,0.88,35.00
2017-05-23 21:00,4.5,55.50,1.51,0.86,35.00
2017-05-23 22:00,4.3,54.50,1.32,0.85,34.00
2017-05-23 23:00,4.7,53.50,1.40,0.82,33.00
2017-05-24 00:00,5.1,50.50,1.27,0.77,35.00
2017-05-24 01:00,7.4,49.50,1.38,0.74,33.00
2017-05-24 02:00,4.4,51.50,1.19,0.78,31.00
2017-05-24 03:00,4.8,50.50,1.24,0.77,32.00
2017-05-24 04:00,4.8,55.50,1.34,0.78,34.00
2017-05-24 05:00,4.9,57.50,1.34,0.88,33.00
2017-05-24 06:00,4.7,58.50,1.14,0.83,34.00
2017-05-24 07:00,5.0,62.50,1.67,0.87,33.00
2017-05-24 08:00,4.4,61.50,1.55,0.97,32.00
2017-05-24 09:00,15.4,54.50,1.29,0.95,31.00
2017-05-24 10:00,14.3,55.50,1.53,0.99,29.00
2017-05-24 11:00,5.0,54.50,1.44,0.95,31.00
2017-05-24 12:00,5.4,52.50,1.31,0.91,32.00
2017-05-24 13:00,14.3,52.50,1.76,0.99,28.00
2017-05-24 14:00,14.3,53.50,1.71,0.99,28.00
2017-05-24 15:00,14.3,53.50,1.80,1.04,32.00
2017-05-24 16:00,13.3,56.50,1.85,1.07,33.00
2017-05-24 17:00,13.3,57.50,2.04,1.16,29.00
2017-05-24 18:00,13.3,53.50,1.90,1.20,28.00
2017-05-24 19:00,12.5,45.50,2.16,1.07,34.00
2017-05-24 20:00,12.5,41.50,1.81,1.14,30.00
2017-05-24 21:00,12.5,42.50,1.78,1.13,32.00
2017-05-24 22:00,12.5,40.50,2.19,1.29,27.00
2017-05-24 23:00,13.3,39.50,1.91,1.17,30.00
2017-05-25 00:00,12.5,31.50,2.12,1.29,24.00
2017-05-25 01:00,12.5,27.50,2.32,1.40,22.00
2017-05-25 02:00,12.5,35.50,2.04,1.08,27.00
2017-05-25 03:00,12.5,33.50,2.10,1.23,27.00
2017-05-25 04:00,12.5,40.50,1.81,1.18,26.00
2017-05-25 05:00,12.5,36.50,2.12,1.20,25.00
2017-05-25 06:00,12.5,40.50,1.95,1.15,27.00
2017-05-25 07:00,12.5,38.50,1.67,1.22,25.00
2017-05-25 08:00,12.5,37.50,2.02,1.20,27.00
2017-05-25 09:00,10.5,37.50,2.29,1.17,26.00
2017-05-25 10:00,12.5,44.50,1.89,1.26,27.00
2017-05-25 11:00,12.5,40.50,1.98,1.26,27.00
2017-05-25 12:00,11.8,43.50,2.10,1.36,27.00
2017-05-25 13:00,12.5,42.50,2.18,1.30,27.00
2017-05-25 14:00,12.5,44.50,2.09,1.20,29.00
2017-05-25 15:00,11.8,41.50,2.50,1.20,29.00
2017-05-25 16:00,11.8,46.50,1.97,1.27,32.00
2017-05-25 17:00,11.1,48.50,1.86,1.20,31.00
2017-05-25 18:00,11.8,51.50,2.05,1.29,28.00
2017-05-25 19:00,11.1,51.50,2.02,1.17,30.00
2017-05-25 20:00,9.5,53.50,1.71,1.16,30.00
2017-05-25 21:00,11.8,47.50,1.61,1.02,29.00
2017-05-25 22:00,11.8,39.50,1.53,1.06,31.00
2017-05-25 23:00,11.1,42.50,1.59,0.98,32.00
2017-05-26 00:00,10.5,42.50,2.03,0.94,29.00
2017-05-26 01:00,10.5,44.50,1.69,0.97,29.00
2017-05-26 02:00,11.1,40.50,1.55,1.03,33.00
2017-05-26 03:00,10.0,50.50,1.63,1.01,31.00
2017-05-26 04:00,10.5,54.50,1.81,1.05,31.00
2017-05-26 05:00,10.0,54.50,1.71,1.11,34.00
2017-05-26 06:00,5.1,53.50,1.96,1.06,29.00
2017-05-26 07:00,5.3,53.50,1.60,1.08,29.00
2017-05-26 08:00,5.6,52.50,1.98,1.04,28.00
2017-05-26 09:00,5.7,48.50,1.80,1.05,30.00
2017-05-26 10:00,9.5,47.50,1.55,1.08,28.00
2017-05-26 11:00,5.6,46.50,1.53,1.02,33.00
2017-05-26 12:00,5.9,45.50,1.72,0.99,34.00
2017-05-26 13:00,5.6,45.50,1.82,1.03,30.00
2017-05-26 14:00,10.0,43.50,1.34,0.96,35.00
2017-05-26 15:00,5.7,45.50,1.60,0.99,34.00
2017-05-26 16:00,9.1,44.50,1.72,1.03,31.00
2017-05-26 17:00,5.4,49.50,1.52,0.95,35.00
2017-05-26 18:00,9.5,49.50,1.46,0.93,34.00
2017-05-26 19:00,5.4,46.50,2.13,0.92,35.00
2017-05-26 20:00,5.7,48.50,1.51,1.01,35.00
2017-05-26 21:00,5.4,50.50,1.43,0.86,35.00
2017-05-26 22:00,5.1,51.50,1.45,0.92,29.00
2017-05-26 23:00,5.3,51.50,1.42,0.97,31.00
2017-05-27 00:00,6.1,48.50,1.55,0.89,31.00
2017-05-27 01:00,5.4,50.50,1.40,0.90,29.00
2017-05-27 02:00,6.3,49.50,1.42,0.87,33.00
2017-05-27 03:00,5.9,53.50,1.69,0.89,33.00
2017-05-27 04:00,5.9,49.50,1.41,0.91,32.00
2017-05-27 05:00,5.9,55.50,1.59,1.03,30.00
2017-05-27 06:00,6.1,56.50,1.85,1.16,30.00
2017-05-27 07:00,5.3,56.50,1.72,1.04,30.00
2017-05-27 08:00,6.3,56.50,1.53,0.98,30.00
2017-05-27 09:00,6.1,53.50,1.54,0.90,33.00
2017-05-27 10:00,5.9,57.50,1.52,0.97,31.00
2017-05-27 11:00,6.7,60.50,1.58,0.97,31.00
2017-05-27 12:00,5.1,57.50,1.56,1.02,30.00
2017-05-27 13:00,6.3,58.50,1.67,0.95,28.00
2017-05-27 14:00,5.9,61.50,1.90,1.05,29.00
2017-05-27 15:00,5.6,62.50,2.38,1.11,29.00
2017-05-27 16:00,5.6,61.50,1.95,1.11,29.00
2017-05-27 17:00,7.7,61.50,2.22,1.11,28.00
2017-05-27 18:00,6.7,59.50,1.87,1.10,28.00
2017-05-27 19:00,7.7,59.50,1.49,0.99,32.00
2017-05-27 20:00,7.4,59.50,1.73,1.01,28.00
2017-05-27 21:00,7.4,57.50,1.73,1.04,27.00
2017-05-27 22:00,7.1,57.50,1.63,0.99,27.00
2017-05-27 23:00,7.7,53.50,1.59,0.86,31.00
2017-05-28 00:00,7.4,54.50,1.57,0.94,28.00
2017-05-28 01:00,6.9,54.50,1.33,0.90,26.00
2017-05-28 02:00,6.9,58.50,1.57,0.89,32.00
2017-05-28 03:00,7.1,56.50,1.70,0.93,29.00
2017-05-28 04:00,7.4,59.50,1.35,0.90,31.00
2017-05-28 05:00,6.9,59.50,1.85,0.99,32.00
2017-05-28 06:00,7.1,62.50,1.45,0.91,32.00
2017-05-28 07:00,6.9,64.50,1.56,0.97,28.00
2017-05-28 08:00,5.1,62.50,1.49,0.90,29.00
2017-05-28 09:00,5.0,61.50,1.37,0.83,29.00
2017-05-28 10:00,5.1,58.50,1.44,0.82,28.00
2017-05-28 11:00,5.7,56.50,1.30,0.84,30.00
2017-05-28 12:00,6.5,59.50,1.46,0.82,30.00
2017-05-28 13:00,4.9,61.50,1.65,0.87,29.00
2017-05-28 14:00,5.4,65.50,1.47,0.98,29.00
2017-05-28 15:00,5.0,66.50,1.51,0.87,31.00
2017-05-28 16:00,5.9,62.50,1.57,0.94,30.00
2017-05-28 17:00,5.0,64.50,1.53,1.01,32.00
2017-05-28 18:00,4.8,67.50,1.59,1.01,34.00
2017-05-28 19:00,4.8,63.50,1.62,1.10,30.00
2017-05-28 20:00,7.1,59.50,1.66,0.98,33.00
2017-05-28 21:00,4.5,62.50,1.73,1.02,30.00
2017-05-28 22:00,5.0,60.50,1.40,0.96,30.00
2017-05-28 23:00,7.4,57.50,1.49,0.95,32.00
2017-05-29 00:00,4.5,57.50,2.07,1.06,29.00
2017-05-29 01:00,5.1,58.50,1.50,0.96,29.00
2017-05-29 02:00,4.8,55.50,1.54,0.95,28.00
2017-05-29 03:00,5.3,54.50,1.63,0.98,32.00
2017-05-29 04:00,5.3,53.50,1.31,0.94,29.00
2017-05-29 05:00,5.0,55.50,1.64,0.96,29.00
2017-05-29 06:00,5.3,53.50,1.60,0.92,27.00
2017-05-29 07:00,5.4,55.50,1.49,0.88,30.00
2017-05-29 08:00,5.7,56.50,1.71,0.93,29.00
2017-05-29 09:00,5.3,60.50,1.83,0.99,29.00
2017-05-29 10:00,5.7,60.50,1.65,1.15,31.00
2017-05-29 11:00,5.6,62.50,1.78,1.14,30.00
2017-05-29 12:00,5.7,59.50,1.82,1.09,29.00
2017-05-29 13:00,5.3,60.50,1.66,0.95,35.00
2017-05-29 14:00,5.9,63.50,1.68,0.99,30.00
2017-05-29 15:00,5.6,60.50,1.74,1.09,29.00
2017-05-29 16:00,5.6,69.50,2.09,1.08,31.00
2017-05-29 17:00,5.6,65.50,1.71,1.15,29.00
2017-05-29 18:00,6.1,65.50,1.78,1.07,29.00
2017-05-29 19:00,5.3,60.50,1.54,0.99,30.00
2017-05-29 20:00,5.6,64.50,1.45,0.95,31.00
2017-05-29 21:00,6.1,61.50,1.74,1.02,28.00
2017-05-29 22:00,5.6,60.50,1.76,0.94,29.00
2017-05-29 23:00,6.5,60.50,1.56,0.92,30.00
2017-05-30 00:00,6.9,57.50,1.46,0.89,31.00
2017-05-30 01:00,6.3,58.50,1.41,0.89,31.00
2017-05-30 02:00,5.7,55.50,1.45,0.97,29.00
2017-05-30 03:00,5.4,55.50,1.40,0.91,30.00
2017-05-30 04:00,7.1,54.50,1.61,0.97,29.00
2017-05-30 05:00,6.9,56.50,1.46,0.96,28.00
2017-05-30 06:00,5.1,59.50,1.60,1.06,27.00
2017-05-30 07:00,5.6,58.50,1.62,1.04,28.00
2017-05-30 08:00,5.3,55.50,1.64,1.12,30.00
2017-05-30 09:00,5.3,60.50,1.83,1.05,27.00
2017-05-30 10:00,5.7,59.50,1.93,1.09,28.00
2017-05-30 11:00,5.6,61.50,2.08,1.07,27.00
2017-05-30 12:00,5.9,64.50,2.24,1.18,27.00
2017-05-30 13:00,6.1,65.50,1.59,1.08,28.00
2017-05-30 14:00,5.6,63.50,1.86,1.09,25.00
2017-05-30 15:00,5.6,64.50,1.54,1.01,29.00
2017-05-30 16:00,5.6,66.50,1.74,1.05,30.00
2017-05-30 17:00,5.7,67.50,2.08,1.18,25.00
2017-05-30 18:00,5.6,65.50,1.56,1.05,28.00
2017-05-30 19:00,5.6,63.50,1.92,0.96,29.00
2017-05-30 20:00,5.1,64.50,1.30,0.85,30.00
2017-05-30 21:00,5.4,66.50,1.38,0.88,29.00
2017-05-30 22:00,5.3,63.50,1.32,0.85,30.00
2017-05-30 23:00,6.9,60.50,1.37,0.87,30.00
2017-05-31 00:00,7.1,59.50,1.38,0.87,30.00
2017-05-31 01:00,5.6,62.50,1.70,1.07,26.00
2017-05-31 02:00,5.6,61.50,1.64,1.10,31.00
2017-05-31 03:00,5.6,59.50,2.21,1.05,32.00
2017-05-31 04:00,5.4,59.50,1.84,1.16,28.00
2017-05-31 05:00,5.7,63.50,1.86,1.19,27.00
2017-05-31 06:00,5.7,58.50,1.81,1.14,28.00
2017-05-31 07:00,5.9,62.50,1.94,1.08,34.00
2017-05-31 08:00,5.7,61.50,2.06,1.18,28.00
2017-05-31 09:00,5.9,63.50,1.79,1.19,28.00
2017-05-31 10:00,5.7,64.50,2.31,1.33,23.00
2017-05-31 11:00,5.6,58.50,1.47,1.03,31.00
2017-05-31 12:00,5.9,64.50,2.12,1.11,28.00
2017-05-31 13:00,6.3,64.50,1.55,1.03,29.00
2017-05-31 14:00,5.7,62.50,1.85,1.01,32.00
2017-05-31 15:00,5.7,60.50,1.54,0.91,31.00
2017-05-31 16:00,5.4,58.50,1.86,0.91,30.00
2017-05-31 17:00,5.4,58.50,1.69,1.00,29.00
2017-05-31 18:00,5.4,61.50,1.69,0.94,31.00
2017-05-31 19:00,5.4,64.50,1.42,0.83,34.00
2017-05-31 20:00,5.0,59.50,1.31,0.85,31.00
2017-05-31 21:00,5.4,57.50,1.39,0.83,35.00
2017-05-31 22:00,5.7,55.50,1.93,0.89,33.00
2017-05-31 23:00,5.3,59.50,1.77,1.03,31.00
2017-06-01 00:00,4.8,64.50,1.72,1.07,30.00
2017-06-01 01:00,5.4,57.50,1.41,1.02,33.00
2017-06-01 02:00,5.9,55.50,2.21,1.07,28.00
2017-06-01 03:00,5.4,56.50,1.62,1.03,29.00
2017-06-01 04:00,5.6,55.50,1.70,1.02,33.00
2017-06-01 05:00,6.3,57.50,1.66,1.08,31.00
2017-06-01 06:00,5.9,58.50,1.71,1.10,27.00
2017-06-01 07:00,5.4,61.50,2.10,1.21,28.00
2017-06-01 08:00,5.9,60.50,2.04,1.21,29.00
2017-06-01 09:00,5.7,63.50,2.30,1.25,30.00
2017-06-01 10:00,6.5,66.50,2.10,1.31,28.00
2017-06-01 11:00,6.3,65.50,1.89,1.31,29.00
2017-06-01 12:00,5.9,66.50,2.14,1.30,27.00
2017-06-01 13:00,5.9,65.50,2.28,1.21,30.00
2017-06-01 14:00,6.5,64.50,2.01,1.26,27.00
2017-06-01 15:00,6.5,62.50,2.21,1.14,29.00
2017-06-01 16:00,6.3,57.50,2.28,1.18,27.00
2017-06-01 17:00,6.7,59.50,1.78,1.02,29.00
2017-06-01 18:00,6.1,59.50,1.58,0.96,30.00
2017-06-01 19:00,6.5,61.50,1.74,1.05,26.00
2017-06-01 20:00,6.7,62.50,1.73,1.00,30.00
2017-06-01 21:00,6.1,63.50,1.56,1.01,30.00
2017-06-01 22:00,6.5,63.50,1.66,0.95,30.00
2017-06-01 23:00,5.7,63.50,1.55,1.09,29.00
2017-06-02 00:00,5.0,65.50,2.30,1.05,32.00